Vorticity
5 12 11 7 4 5 8 5 3 3 5 5 6 5 5 5 5 4 5 6 8 13 8 7 6 6 5 5 5 5 5 5 5 5 5 5 5 5 4 4 3 4 1
5 14 11 8 4 5 8 5 4 4 5 5 5 5 7 5 5 5 7 8 7 -0 5 5 5 5 5 5 5 4 4 5 5 5 5 5 6 5 5 5 5 1 5
-3 3 11 8 4 5 6 6 3 3 4 5 5 5 5 5 5 6 8 7 5 4 4 5 5 4 4 4 4 4 5 6 7 7 6 8 7 6 7 7 7 7 8
-7 1 9 10 6 4 6 4 3 3 4 6 6 4 5 5 5 7 7 4 5 4 4 4 4 4 5 4 5 8 8 9 9 8 8 7 7 7 8 8 8 7 5
-7 1 4 7 6 5 5 5 2 5 5 6 5 5 6 5 6 7 4 5 4 5 4 4 4 5 5 5 8 9 9 9 8 8 8 7 6 7 6 7 8 8 11
7 -0 6 4 8 5 4 5 2 6 3 5 4 5 6 5 6 6 5 5 5 4 4 4 5 6 6 9 9 8 8 8 7 5 5 4 6 6 6 6 7 7 7
1 2 6 3 5 5 4 4 4 1 4 5 4 5 6 6 6 6 5 5 5 5 5 5 6 6 7 9 7 6 6 5 5 4 4 6 7 7 7 7 8 7 6
8 5 5 3 4 6 5 6 4 2 2 5 5 4 6 6 6 6 6 6 5 5 6 7 7 6 9 7 6 5 5 5 4 5 5 7 7 8 8 7 7 6 6
15 6 4 4 2 4 6 1 5 2 2 4 5 5 5 6 6 6 6 5 5 6 7 7 6 7 7 6 5 5 5 5 5 6 6 8 8 9 9 8 7 5 6
2 14 4 6 7 -2 3 5 6 3 2 4 5 5 5 6 6 6 6 6 6 7 7 7 6 8 5 5 5 6 7 9 8 7 8 7 7 7 9 10 9 7 7
5 9 11 4 1 5 6 8 6 3 2 4 5 5 6 6 6 6 6 6 7 8 7 6 5 6 4 6 5 6 7 7 8 8 7 7 7 12 7 8 8 7 6
7 7 11 7 2 6 -3 8 4 4 3 4 6 5 6 6 6 6 6 7 8 8 7 6 5 6 5 6 5 6 7 6 6 8 7 7 7 7 5 5 5 5 5
17 -1 1 8 8 1 3 -1 8 5 3 4 6 5 6 6 6 6 6 7 7 7 6 6 6 6 6 6 5 6 6 6 6 7 7 7 7 7 7 7 6 6 7
11 19 13 -4 4 -1 5 5 6 5 4 4 6 5 6 6 6 6 6 7 7 6 6 6 6 6 6 6 5 5 5 5 5 6 6 6 6 6 6 6 6 5 5
8 10 17 -11 4 5 4 7 5 7 4 4 6 6 6 7 6 6 6 7 6 6 6 6 6 7 6 6 5 5 4 5 5 6 6 5 5 5 5 5 5 5 5
11 13 10 9 15 -3 3 4 3 2 6 4 6 5 6 7 6 6 6 6 6 6 6 6 7 8 7 6 5 5 4 5 5 5 5 5 4 5 6 6 6 7 7
10 7 23 20 -19 23 -11 9 2 10 2 4 6 6 6 7 6 6 6 6 6 6 7 8 9 8 6 6 5 5 5 5 5 5 5 5 5 6 6 6 6 6 6
16 12 4 17 27 -3 9 5 7 1 7 4 6 6 7 7 6 6 6 7 7 7 7 9 9 7 6 6 6 6 5 5 6 6 5 5 6 6 6 6 6 5 5
12 15 10 8 -6 26 4 33 0 11 9 6 6 6 7 7 6 6 6 7 7 8 8 8 7 6 6 7 7 6 6 7 7 7 6 6 7 6 7 6 5 5 6
12 14 11 9 21 14 28 54 -8 -8 6 4 7 7 7 7 6 6 6 7 7 8 8 7 7 7 7 7 7 7 7 7 7 7 7 7 6 7 6 5 6 6 7
10 19 14 13 12 -1 24 34 -5 23 -5 3 6 7 7 7 6 6 6 7 8 8 7 7 6 7 7 7 8 8 7 6 6 7 7 8 6 5 7 6 7 7 8
13 21 17 15 8 9 18 29 -11 22 15 6 6 8 7 7 6 6 6 7 7 7 7 7 7 7 7 7 7 6 7 7 7 7 6 5 7 7 7 7 7 7 6
16 17 17 16 22 6 16 -0 30 14 7 4 7 7 8 6 6 6 7 7 7 6 7 7 7 7 7 7 7 7 9 8 6 6 7 8 8 8 6 6 5 6 5
15 19 13 16 21 -4 11 -1 12 18 7 7 7 8 7 7 6 6 7 7 6 7 7 7 7 7 7 8 7 7 7 7 7 9 8 8 7 6 5 5 5 5 5
11 16 15 21 17 -2 26 19 15 1 12 10 9 8 7 7 6 7 7 7 7 7 7 7 7 7 8 8 7 7 8 8 8 8 7 7 6 7 6 6 5 5 6
14 12 12 21 14 6 2 20 16 15 -6 5 10 8 7 7 7 7 7 7 7 7 7 7 7 8 9 7 8 7 8 7 7 6 6 5 5 5 5 5 6 6 7
Height
3143 3142 3143 3144 3146 3147 3147 3148 3148 3148 3149 3149 3149 3149 3150 3150 3150 3150 3150 3150 3151 3151 3152 3152 3152 3152 3152 3152 3151 3151 3151 3150 3150 3150 3149 3149 3148 3148 3148 3148 3147 3148 3148
3142 3142 3142 3144 3145 3146 3146 3147 3147 3148 3149 3149 3149 3149 3149 3149 3149 3149 3150 3150 3151 3151 3152 3152 3152 3152 3152 3152 3151 3151 3150 3150 3150 3149 3148 3148 3148 3148 3148 3147 3147 3147 3147
3142 3141 3141 3142 3144 3145 3145 3146 3147 3147 3148 3149 3148 3148 3149 3149 3149 3149 3149 3150 3150 3151 3151 3151 3152 3152 3152 3151 3150 3150 3150 3150 3149 3149 3148 3147 3147 3147 3147 3147 3147 3147 3147
3140 3141 3141 3141 3142 3143 3144 3145 3145 3146 3147 3148 3148 3148 3148 3149 3149 3149 3149 3149 3149 3150 3150 3151 3151 3151 3151 3151 3150 3150 3149 3149 3149 3149 3148 3147 3145 3146 3146 3146 3146 3146 3147
3138 3139 3140 3140 3141 3142 3143 3144 3144 3145 3145 3146 3147 3148 3148 3148 3148 3148 3148 3148 3149 3149 3150 3150 3150 3150 3150 3150 3149 3149 3149 3148 3148 3148 3147 3147 3145 3146 3145 3146 3146 3146 3146
3136 3136 3138 3138 3139 3140 3141 3142 3143 3143 3144 3145 3146 3147 3148 3148 3147 3147 3148 3148 3148 3148 3149 3149 3149 3149 3149 3149 3148 3148 3148 3148 3147 3147 3147 3146 3146 3146 3146 3145 3145 3145 3145
3133 3133 3135 3135 3136 3138 3139 3140 3141 3142 3142 3143 3144 3145 3146 3147 3147 3147 3147 3147 3147 3147 3148 3148 3148 3148 3148 3148 3148 3148 3148 3148 3147 3147 3146 3146 3146 3146 3145 3145 3145 3145 3145
3129 3130 3132 3133 3133 3135 3136 3137 3138 3139 3140 3141 3142 3143 3144 3145 3146 3146 3146 3146 3146 3146 3146 3147 3147 3147 3148 3148 3148 3148 3148 3148 3147 3146 3145 3145 3144 3144 3144 3144 3143 3144 3144
3124 3126 3127 3129 3130 3131 3132 3133 3135 3136 3137 3138 3140 3140 3141 3143 3144 3145 3145 3145 3145 3145 3145 3146 3146 3146 3147 3147 3147 3148 3147 3147 3146 3145 3144 3144 3143 3143 3143 3143 3142 3142 3143
3119 3122 3123 3126 3127 3127 3128 3130 3132 3133 3134 3136 3137 3138 3139 3140 3141 3142 3143 3143 3144 3144 3144 3144 3145 3145 3146 3146 3146 3146 3146 3146 3145 3144 3144 3143 3142 3142 3141 3142 3141 3141 3141
3114 3116 3119 3121 3122 3123 3124 3126 3128 3130 3132 3133 3134 3135 3136 3137 3138 3140 3141 3141 3142 3142 3142 3143 3143 3144 3144 3145 3145 3145 3145 3144 3144 3143 3143 3142 3141 3141 3140 3141 3141 3141 3141
3109 3110 3113 3116 3118 3118 3121 3123 3124 3127 3129 3130 3132 3133 3134 3134 3136 3137 3138 3139 3140 3141 3141 3142 3142 3143 3143 3144 3143 3144 3143 3142 3142 3142 3142 3141 3140 3140 3140 3140 3140 3140 3140
3100 3103 3107 3110 3112 3114 3116 3118 3120 3122 3125 3127 3129 3130 3131 3132 3133 3134 3135 3136 3138 3139 3139 3140 3141 3141 3142 3142 3142 3142 3142 3142 3141 3141 3140 3140 3140 3139 3139 3139 3139 3138 3138
3092 3095 3098 3101 3105 3108 3111 3113 3116 3118 3120 3123 3125 3126 3128 3129 3129 3131 3132 3134 3135 3136 3137 3138 3138 3139 3140 3140 3141 3141 3141 3140 3140 3140 3139 3139 3138 3138 3138 3138 3137 3136 3136
3084 3087 3090 3089 3097 3101 3104 3107 3110 3112 3116 3118 3121 3123 3124 3126 3126 3127 3129 3131 3132 3134 3135 3136 3136 3137 3138 3139 3139 3140 3139 3139 3139 3139 3138 3137 3137 3137 3136 3136 3135 3134 3133
3076 3079 3082 3084 3087 3088 3093 3098 3102 3106 3111 3114 3117 3119 3121 3122 3123 3124 3126 3127 3129 3131 3132 3133 3134 3135 3136 3137 3138 3138 3137 3137 3137 3137 3137 3136 3135 3135 3135 3134 3134 3133 3131
3065 3070 3072 3077 3080 3083 3086 3093 3092 3099 3106 3110 3113 3115 3117 3118 3120 3121 3123 3124 3126 3128 3129 3131 3132 3132 3134 3135 3135 3136 3136 3135 3135 3135 3135 3134 3133 3132 3132 3132 3131 3130 3129
3057 3058 3059 3069 3071 3074 3073 3072 3084 3090 3099 3105 3109 3111 3113 3114 3116 3118 3119 3121 3124 3125 3127 3129 3130 3130 3131 3132 3133 3133 3134 3133 3134 3134 3133 3132 3131 3131 3130 3129 3128 3127 3125
3047 3051 3048 3057 3065 3067 3066 3069 3077 3084 3092 3100 3104 3106 3109 3110 3112 3114 3116 3118 3120 3122 3124 3126 3127 3128 3129 3129 3131 3131 3131 3131 3131 3131 3131 3129 3128 3128 3127 3126 3124 3123 3122
3036 3040 3040 3046 3054 3058 3062 3060 3056 3078 3082 3095 3099 3101 3105 3106 3108 3110 3113 3115 3117 3119 3121 3123 3124 3126 3126 3127 3127 3128 3128 3128 3128 3128 3128 3126 3125 3124 3124 3123 3121 3120 3118
3025 3030 3028 3035 3045 3049 3055 3057 3065 3073 3076 3088 3094 3098 3101 3102 3103 3106 3109 3111 3113 3116 3118 3120 3121 3123 3123 3123 3124 3124 3125 3125 3124 3124 3124 3123 3122 3121 3120 3118 3117 3116 3114
3015 3020 3020 3027 3037 3043 3049 3053 3054 3070 3076 3082 3088 3093 3096 3098 3099 3101 3105 3107 3110 3113 3115 3117 3118 3119 3120 3121 3121 3121 3122 3123 3121 3121 3120 3119 3118 3117 3115 3114 3112 3111 3110
3006 3009 3014 3019 3029 3037 3043 3049 3054 3060 3061 3073 3081 3089 3092 3093 3095 3097 3101 3104 3106 3109 3112 3113 3115 3116 3117 3117 3117 3118 3117 3118 3117 3117 3116 3115 3114 3113 3111 3110 3108 3107 3105
2998 3001 3006 3013 3021 3031 3034 3042 3047 3052 3059 3069 3077 3086 3087 3089 3091 3095 3098 3101 3103 3105 3108 3110 3111 3113 3114 3114 3114 3114 3115 3114 3113 3114 3113 3112 3110 3109 3107 3105 3103 3101 3099
2990 2995 2999 3007 3016 3025 3028 3035 3043 3043 3044 3061 3074 3079 3082 3086 3089 3092 3095 3097 3100 3102 3105 3107 3108 3109 3111 3111 3111 3110 3112 3111 3111 3110 3109 3109 3107 3105 3103 3100 3097 3095 3092
2983 2989 2995 3002 3011 3019 3024 3031 3035 3040 3047 3059 3070 3075 3078 3083 3086 3090 3092 3095 3097 3100 3102 3104 3105 3106 3109 3108 3106 3108 3108 3108 3107 3107 3106 3106 3105 3103 3100 3097 3094 3090 3087